• In Hungary
  • List of Countries
  • For 7 days
  • Water Temperature
  • Satellite Maps
  • Weather Map
  • News
  • Weather Widgets
  • user-avatar
    Login

    Hourly Weather Kegalle

    Today, 24 June, Sunday

    Time Temperature Precipitation Wind Pressure Humidity
    00:00 +26°C° 0.1 mm 1 mps 738 mmHg 90%
    01:00 +25°C° 0.1 mm 2 mps 737 mmHg 90%
    02:00 +25°C° 0.1 mm 2 mps 737 mmHg 91%
    03:00 +25°C° 0.1 mm 2 mps 737 mmHg 91%
    04:00 +25°C° 0.1 mm 2 mps 737 mmHg 91%
    05:00 +25°C° 0 mm 1 mps 737 mmHg 91%
    06:00 +26°C° 0.3 mm 2 mps 737 mmHg 87%
    07:00 +27°C° 0.3 mm 2 mps 738 mmHg 83%
    08:00 +28°C° 0.3 mm 2 mps 738 mmHg 80%
    09:00 +29°C° 0.6 mm 3 mps 738 mmHg 77%
    10:00 +30°C° 0.6 mm 3 mps 738 mmHg 74%
    11:00 +31°C° 0.6 mm 3 mps 738 mmHg 71%
    12:00 +30°C° 0.8 mm 3 mps 738 mmHg 72%
    13:00 +30°C° 0.8 mm 3 mps 737 mmHg 73%
    14:00 +30°C° 0.8 mm 3 mps 737 mmHg 73%
    15:00 +30°C° 0.6 mm 3 mps 737 mmHg 76%
    16:00 +29°C° 0.6 mm 3 mps 737 mmHg 79%
    17:00 +28°C° 0.6 mm 2 mps 737 mmHg 82%
    18:00 +27°C° 0.3 mm 2 mps 737 mmHg 84%
    19:00 +27°C° 0.3 mm 2 mps 737 mmHg 87%
    20:00 +26°C° 0.3 mm 2 mps 738 mmHg 89%
    21:00 +26°C° 0.5 mm 2 mps 738 mmHg 89%
    22:00 +26°C° 0.5 mm 2 mps 738 mmHg 89%
    23:00 +26°C° 0.5 mm 2 mps 738 mmHg 90%

    Tomorrow, 25 June, Monday

    Time Temperature Precipitation Wind Pressure Humidity
    00:00 +26°C° 0.9 mm 2 mps 738 mmHg 90%
    01:00 +26°C° 0.9 mm 2 mps 738 mmHg 90%
    02:00 +26°C° 0.9 mm 2 mps 737 mmHg 90%
    03:00 +25°C° 1.1 mm 2 mps 737 mmHg 90%
    04:00 +25°C° 1.1 mm 2 mps 737 mmHg 90%
    05:00 +25°C° 1.1 mm 2 mps 737 mmHg 90%
    06:00 +26°C° 0.8 mm 2 mps 737 mmHg 88%
    07:00 +27°C° 0.8 mm 2 mps 738 mmHg 85%
    08:00 +28°C° 0.8 mm 3 mps 738 mmHg 83%
    09:00 +28°C° 0.9 mm 3 mps 738 mmHg 81%
    10:00 +29°C° 0.9 mm 3 mps 738 mmHg 79%
    11:00 +29°C° 0.9 mm 3 mps 738 mmHg 77%
    12:00 +30°C° 0.8 mm 3 mps 737 mmHg 76%
    13:00 +30°C° 0.8 mm 3 mps 737 mmHg 75%
    14:00 +30°C° 0.8 mm 4 mps 736 mmHg 75%
    15:00 +29°C° 0.1 mm 3 mps 736 mmHg 77%
    16:00 +29°C° 0.1 mm 3 mps 736 mmHg 80%
    17:00 +28°C° 0.1 mm 2 mps 736 mmHg 83%
    18:00 +27°C° 0.1 mm 2 mps 736 mmHg 85%
    19:00 +27°C° 0.1 mm 2 mps 737 mmHg 87%
    20:00 +26°C° 0.1 mm 2 mps 737 mmHg 89%
    21:00 +26°C° 0.1 mm 2 mps 737 mmHg 90%
    22:00 +26°C° 0.1 mm 2 mps 737 mmHg 90%
    23:00 +26°C° 0.1 mm 2 mps 738 mmHg 90%

    Day after tomorrow, 26 June, Tuesday

    Time Temperature Precipitation Wind Pressure Humidity
    00:00 +26°C° 0.1 mm 2 mps 737 mmHg 91%
    01:00 +26°C° 0.1 mm 2 mps 737 mmHg 91%
    02:00 +26°C° 0.1 mm 2 mps 736 mmHg 91%
    03:00 +26°C° 0.1 mm 2 mps 736 mmHg 91%
    04:00 +26°C° 0.1 mm 2 mps 736 mmHg 91%
    05:00 +26°C° 0.1 mm 2 mps 736 mmHg 92%
    06:00 +27°C° 0.1 mm 2 mps 736 mmHg 89%
    07:00 +28°C° 0.1 mm 3 mps 737 mmHg 86%
    08:00 +28°C° 0.1 mm 3 mps 737 mmHg 83%
    09:00 +29°C° 0.2 mm 3 mps 737 mmHg 80%
    10:00 +30°C° 0.2 mm 3 mps 737 mmHg 77%
    11:00 +30°C° 0.2 mm 3 mps 737 mmHg 74%
    12:00 +30°C° 0.5 mm 3 mps 737 mmHg 74%
    13:00 +30°C° 0.5 mm 3 mps 736 mmHg 73%
    14:00 +30°C° 0.5 mm 4 mps 736 mmHg 73%
    15:00 +30°C° 0.7 mm 3 mps 736 mmHg 76%
    16:00 +29°C° 0.7 mm 3 mps 736 mmHg 80%
    17:00 +28°C° 0.7 mm 2 mps 736 mmHg 83%
    18:00 +27°C° 0.7 mm 2 mps 736 mmHg 84%
    19:00 +27°C° 0.7 mm 2 mps 737 mmHg 86%
    20:00 +26°C° 0.7 mm 2 mps 737 mmHg 88%
    21:00 +26°C° 1.4 mm 2 mps 737 mmHg 88%
    22:00 +26°C° 1.4 mm 2 mps 737 mmHg 88%
    23:00 +26°C° 1.4 mm 2 mps 737 mmHg 88%

    27 June, Wednesday

    Time Temperature Precipitation Wind Pressure Humidity
    00:00 +26°C° 0.4 mm 2 mps 737 mmHg 88%
    01:00 +26°C° 0.4 mm 2 mps 736 mmHg 89%
    02:00 +26°C° 0.4 mm 2 mps 735 mmHg 89%
    03:00 +26°C° 0.3 mm 2 mps 736 mmHg 90%
    04:00 +26°C° 0.3 mm 2 mps 736 mmHg 90%
    05:00 +26°C° 0.3 mm 2 mps 736 mmHg 91%
    06:00 +26°C° 0.2 mm 2 mps 736 mmHg 90%
    07:00 +27°C° 0.2 mm 2 mps 737 mmHg 89%
    08:00 +27°C° 0.2 mm 2 mps 737 mmHg 87%
    09:00 +28°C° 0.3 mm 3 mps 737 mmHg 84%
    10:00 +28°C° 0.3 mm 3 mps 737 mmHg 81%
    11:00 +29°C° 0.3 mm 3 mps 737 mmHg 78%
    12:00 +29°C° 0.8 mm 3 mps 737 mmHg 79%
    13:00 +29°C° 0.8 mm 3 mps 736 mmHg 79%
    14:00 +29°C° 0.8 mm 3 mps 736 mmHg 79%
    15:00 +28°C° 0.8 mm 3 mps 736 mmHg 82%
    16:00 +27°C° 0.8 mm 2 mps 736 mmHg 85%
    17:00 +27°C° 0.8 mm 2 mps 736 mmHg 88%
    18:00 +27°C° 0.2 mm 2 mps 736 mmHg 89%
    19:00 +26°C° 0.2 mm 2 mps 737 mmHg 90%
    20:00 +26°C° 0.2 mm 2 mps 737 mmHg 90%
    21:00 +26°C° 0.1 mm 2 mps 737 mmHg 91%
    22:00 +26°C° 0.1 mm 2 mps 737 mmHg 91%
    23:00 +26°C° 0.1 mm 2 mps 737 mmHg 91%

    28 June, Thursday

    Time Temperature Precipitation Wind Pressure Humidity
    00:00 +26°C° 0.2 mm 2 mps 736 mmHg 91%
    01:00 +26°C° 0.2 mm 2 mps 736 mmHg 92%
    02:00 +25°C° 0.2 mm 1 mps 735 mmHg 92%
    03:00 +25°C° 0.3 mm 1 mps 735 mmHg 92%
    04:00 +25°C° 0.3 mm 1 mps 735 mmHg 91%
    05:00 +25°C° 0.3 mm 1 mps 736 mmHg 91%
    06:00 +26°C° 0.2 mm 2 mps 736 mmHg 88%
    07:00 +27°C° 0.2 mm 2 mps 737 mmHg 86%
    08:00 +28°C° 0.2 mm 2 mps 737 mmHg 83%
    09:00 +28°C° 0.4 mm 2 mps 737 mmHg 80%
    10:00 +29°C° 0.4 mm 3 mps 737 mmHg 77%
    11:00 +30°C° 0.4 mm 3 mps 737 mmHg 74%
    12:00 +30°C° 0.4 mm 3 mps 736 mmHg 74%
    13:00 +30°C° 0.4 mm 3 mps 736 mmHg 74%
    14:00 +30°C° 0.4 mm 3 mps 735 mmHg 73%
    15:00 +29°C° 0.3 mm 3 mps 735 mmHg 76%
    16:00 +28°C° 0.3 mm 2 mps 735 mmHg 79%
    17:00 +28°C° 0.3 mm 2 mps 735 mmHg 82%
    18:00 +27°C° 0.2 mm 2 mps 736 mmHg 84%
    19:00 +26°C° 0.2 mm 2 mps 737 mmHg 86%
    20:00 +26°C° 0.2 mm 2 mps 737 mmHg 88%
    21:00 +26°C° 0.3 mm 2 mps 737 mmHg 88%
    22:00 +26°C° 0.3 mm 2 mps 737 mmHg 88%
    23:00 +25°C° 0.3 mm 2 mps 737 mmHg 88%

    29 June, Friday

    Time Temperature Precipitation Wind Pressure Humidity
    00:00 +25°C° 0.1 mm 1 mps 736 mmHg 89%
    01:00 +25°C° 0.1 mm 1 mps 736 mmHg 90%
    02:00 +25°C° 0.1 mm 1 mps 735 mmHg 91%
    03:00 +25°C° 0.1 mm 1 mps 735 mmHg 91%
    04:00 +25°C° 0.1 mm 1 mps 735 mmHg 91%
    05:00 +25°C° 0.1 mm 1 mps 736 mmHg 91%
    06:00 +26°C° 0.2 mm 1 mps 736 mmHg 88%
    07:00 +27°C° 0.2 mm 2 mps 737 mmHg 84%
    08:00 +28°C° 0.2 mm 2 mps 737 mmHg 81%
    09:00 +29°C° 0.1 mm 2 mps 737 mmHg 76%
    10:00 +30°C° 0.1 mm 3 mps 737 mmHg 71%
    11:00 +31°C° 0.1 mm 3 mps 737 mmHg 66%
    12:00 +31°C° 0 mm 3 mps 736 mmHg 65%
    13:00 +31°C° 0 mm 3 mps 735 mmHg 63%
    14:00 +33°C° 0 mm 3 mps 735 mmHg 62%
    15:00 +31°C° 0 mm 3 mps 735 mmHg 66%
    16:00 +30°C° 0 mm 3 mps 735 mmHg 70%
    17:00 +29°C° 0 mm 2 mps 735 mmHg 74%
    18:00 +28°C° 0 mm 2 mps 736 mmHg 78%
    19:00 +27°C° 0 mm 2 mps 736 mmHg 82%
    20:00 +26°C° 0 mm 1 mps 737 mmHg 86%
    21:00 +26°C° 0 mm 1 mps 737 mmHg 86%
    22:00 +26°C° 0 mm 1 mps 737 mmHg 87%
    23:00 +26°C° 0 mm 1 mps 737 mmHg 87%
    Show more